Regional Weather Roundup
Issued by NWS Little Rock, AR

Home | Current Version | Previous Version | Graphics & Text | Print | Product List | Glossary On
Versions: 1 2 3 4 5 6 7 8 9 10 11 12 13 14 15 16 17 18 19 20 21 22 23 24 25 26 27 28 29 30 31 32 33 34 35 36 37 38 39 40 41 42 43 44 45 46 47 48
000
ASUS44 KLZK 050005
RWRLZK

WEATHER ROUNDUP FOR ARKANSAS
NATIONAL WEATHER SERVICE LITTLE ROCK AR
700 PM CDT MON MAY 04 2015

NOTE: "FAIR" INDICATES FEW OR NO CLOUDS BELOW 12,000 FEET WITH NO
SIGNIFICANT WEATHER AND/OR OBSTRUCTIONS TO VISIBILITY.

ARZ001-003-010-029-050100-
NORTHWEST ARKANSAS

CITY           SKY/WX    TMP DP  RH WIND       PRES   REMARKS
FAYETTEVILLE   SUNNY     75  59  57 S15G30    30.07F
6HR MIN TEMP:  75; 6HR MAX TEMP:  79;

FORT SMITH     SUNNY     79  53  40 S8        30.05S
6HR MIN TEMP:  78; 6HR MAX TEMP:  84;

HARRISON       SUNNY     76  54  46 S10       30.09F
6HR MIN TEMP:  76; 6HR MAX TEMP:  81;

BENTONVILLE    SUNNY     75  55  50 S9        30.07F
6HR MIN TEMP:  75; 6HR MAX TEMP:  81;

ROGERS         SUNNY     76  57  51 S14       30.07F
6HR MIN TEMP:  75; 6HR MAX TEMP:  81;

SILOAM SPGS    SUNNY     75  54  46 S12       30.07F
6HR MIN TEMP:  75; 6HR MAX TEMP:  81;

HIGHFILL       SUNNY     77  55  46 S10       30.05F
6HR MIN TEMP:  76; 6HR MAX TEMP:  80;

SPRINGDALE     SUNNY     77  54  44 SE10G20   30.08F
$$

ARZ004-005-016-050100-
NORTH CENTRAL ARKANSAS

CITY           SKY/WX    TMP DP  RH WIND       PRES   REMARKS
BATESVILLE     CLEAR     79  55  44 SE5       30.11S
6HR MIN TEMP:  79; 6HR MAX TEMP:  84;

FLIPPIN        SUNNY     79  54  41 S7        30.07S
6HR MIN TEMP:  79; 6HR MAX TEMP:  82;

MTN HOME       SUNNY     77  56  48 S5        30.08F
6HR MIN TEMP:  77; 6HR MAX TEMP:  82;

$$

ARZ040-041-050100-
WEST CENTRAL ARKANSAS

CITY           SKY/WX    TMP DP  RH WIND       PRES   REMARKS
MENA           SUNNY     79  55  44 SE5       30.09F
MOUNT IDA      SUNNY     77  58  51 VRB3      30.08F
6HR MIN TEMP:  77; 6HR MAX TEMP:  81;

$$

ARZ009-017-025-026-028-050100-
NORTHEAST ARKANSAS

CITY           SKY/WX    TMP DP  RH WIND       PRES   REMARKS
CORNING          N/A     82  54  36 S12       30.11S
JONESBORO      CLEAR     79  53  40 S12       30.11F
6HR MIN TEMP:  79; 6HR MAX TEMP:  83;

NEWPORT        CLEAR     81  53  37 S10       30.12S
6HR MIN TEMP:  81; 6HR MAX TEMP:  86;

WALNUT RIDGE   CLEAR     79  52  38 S13       30.10F
6HR MIN TEMP:  79; 6HR MAX TEMP:  84;

BLYTHEVILLE    CLEAR     80  51  36 S10       30.13F
6HR MIN TEMP:  80; 6HR MAX TEMP:  86;

$$

ARZ022-023-033-042-044-050100-
CENTRAL ARKANSAS

CITY           SKY/WX    TMP DP  RH WIND       PRES   REMARKS
LITTLE ROCK    MOSUNNY   79  55  43 S6        30.10F
6HR MIN TEMP:  79; 6HR MAX TEMP:  84;

N LITTLE ROCK  MOSUNNY   79  58  49 S8        30.10F
6HR MIN TEMP:  78; 6HR MAX TEMP:  82;

JACKSONVILLE   SUNNY     80  58  46 S3        30.10F
6HR MIN TEMP:  80; 6HR MAX TEMP:  85;

SEARCY         CLEAR     79  56  45 S9        30.12S
6HR MIN TEMP:  79; 6HR MAX TEMP:  84;

HOT SPRINGS    MOSUNNY   78  57  48 SE8       30.09F
6HR MIN TEMP:  78; 6HR MAX TEMP:  82;

RUSSELLVILLE   SUNNY     79  57  46 VRB3      30.08F
6HR MIN TEMP:  78; 6HR MAX TEMP:  83;

CLINTON        FAIR      77  59  53 S5        30.11S
$$

ARZ036-050100-
EAST ARKANSAS

CITY           SKY/WX    TMP DP  RH WIND       PRES   REMARKS
WEST MEMPHIS   CLEAR     78  53  41 S9        30.12F
6HR MIN TEMP:  78; 6HR MAX TEMP:  83;

$$

ARZ050-053-066-070-073-050100-
SOUTHWEST ARKANSAS

CITY           SKY/WX    TMP DP  RH WIND       PRES   REMARKS
ARKADELPHIA    FAIR      78  64  61 CALM      30.09F
6HR MIN TEMP:  78; 6HR MAX TEMP:  85;

CAMDEN         SUNNY     81  54  39 NE7       30.09S
TEXARKANA      PTSUNNY   76  59  55 SE5       30.07F
6HR MIN TEMP:  76; 6HR MAX TEMP:  82;

EL DORADO      SUNNY     79  55  43 SE6       30.09F
6HR MIN TEMP:  79; 6HR MAX TEMP:  83;

DE QUEEN       SUNNY     77  58  51 SE6       30.05S
6HR MIN TEMP:  77; 6HR MAX TEMP:  82;

$$

ARZ056-057-069-050100-
SOUTHEAST ARKANSAS

CITY           SKY/WX    TMP DP  RH WIND       PRES   REMARKS
PINE BLUFF     CLEAR     79  54  41 S6        30.11S
6HR MIN TEMP:  79; 6HR MAX TEMP:  83;

STUTTGART      CLEAR     81  52  36 SE9       30.12S
6HR MIN TEMP:  81; 6HR MAX TEMP:  84;

MONTICELLO     CLEAR     80  53  39 SE3       30.11F
6HR MIN TEMP:  80; 6HR MAX TEMP:  85;


$$





USA.gov is the U.S. government's official web portal to all federal, state and local government web resources and services.